User: anonymous   Login
Location: Caltech
(34.1382°N, 118.1253°W)
Time: 23:45:36
(UTC-07:00)
Language:

OPAL - Orbit

View from above orbital plane
View from above orbital plane
View from above satellite
View from above satellite

Ground track
Ground track

The orbit data is extracted from the following two-line orbital elements,

1 26063U 00004C   18113.68732829 -.00000029 +00000-0 +10121-4 0  9991
2 26063 100.1946 179.7222 0036913 152.4643 207.8503 14.36695146955769
Epoch (UTC): 23 April 2018 16:29:45
Eccentricity: 0.0036913
inclination: 100.1946°
perigee height: 743 km
apogee height: 796 km
right ascension of ascending node: 179.7222°
argument of perigee: 152.4643°
revolutions per day: 14.36695146
mean anomaly at epoch: 207.8503°
orbit number at epoch: 95576

The dashed part of the orbit path shows where the satellite is in the earth's shadow,  

DLR